Location: Boncourt
(49.6160°N, 3.9448°E)
Time: 23:17:24
(UTC+00:00)

Cosmos 2221 - Pass Details

Date: 09 February 2023
Orbit: 589 x 611 km, 82.5° (Epoch: 21 March)

Event Time Altitude Azimuth Distance (km) Brightness Sun altitude
Rises 19:32:45 0° 351° (N) 2,878 6.2 -26.3°
Reaches altitude 10° 19:34:59 10° 353° (N) 1,972 5.3 -26.6°
Enters shadow 19:36:33 22° 355° (N) 1,355 4.4 -26.9°
